Location: Lake Almanor
(40.2485°N, 121.1442°W)
Time: 02:23:05
(UTC-08:00)

STARLINK-1094 - Pass Details

Date: 01 February 2020
Orbit: 349 x 350 km, 53.0° (Epoch: 22 February)

Event Time Altitude Azimuth Distance (km) Brightness Sun altitude
Rises 18:40:26 0° 306° (NW) 2,163 7.4 -15.0°
Reaches altitude 10° 18:42:28 10° 302° (WNW) 1,317 6.3 -15.4°
Maximum altitude 18:45:21 57° 222° (SW) 416 3.2 -16.0°
Enters shadow 18:46:58 23° 150° (SSE) 813 4.3 -16.3°
